Weather in Novosherbinovskaya

Russia / Krasnodar Krai     46°28′34″N   38°38′52″E
temp.,
°C
wind,
m/s
gust,
m/s
humid.,
%
clouds,
%
prec.,
mm/h
press.,
hPa
HPBL,
m
13 june, sun
sun1300:00+16sw229028 0.0 101226
03:00+17ssw229148 0.0 101226
06:00+18ssw35895 0.0 1011133
09:00+23sw44644 0.3 1011811
12:00+25sw445127 1.1 10111843
15:00+26wsw335139 1.1 10111274
18:00+24wsw34596 0.1 1011443
21:00+18wsw227748 0.1 101220
14 june, mon
mon1400:00+17sw11895 0.1 101211
03:00+16sw12915 0.1 101211
06:00+18se118596 0.0 101240
09:00+22ene2368100 0.0 1012586
12:00+26e3453100 0.0 10121466
15:00+27e334897 0.0 10111993
18:00+26e345639 0.0 10111133
21:00+20ene48798 0.1 1010152
15 june, tue
tue1500:00+19ne488012 0.0 1010157
03:00+17ene4108672 0.0 1009183
06:00+19ene41085100 0.1 1010274
09:00+21ese4880100 0.6 1010478
12:00+22ese3580100 1.4 1010381
15:00+25se457099 8.0 1009698
18:00+24s23734 5.9 1009760
21:00+19w34860 6.0 101046
16 june, wed
wed1600:00+18wnw11870 0.0 100911
03:00+17nw229046 0.3 100923
06:00+18n249262 1.1 1009139
09:00+21e1286100 6.9 1009531
12:00+20wsw569298 6.6 1008529
15:00+20w6108912 7.3 1010572
18:00+21wsw57730 0.0 1011717
21:00+16wsw22910 0.0 101229
17 june, thu
thu1700:00+15w22910 0.0 101112
03:00+15wnw11900 0.0 101210
06:00+16se11880 0.0 101242
09:00+21n226986 0.0 1012609
12:00+24n3361100 0.0 10121044
15:00+22nw3374100 0.8 1013422
18:00+20w2383100 1.1 1013169
21:00+19wsw2283100 1.2 101425